VK3TI-1 Weather Reports


time (UTC)temp
F
wind
direction
speed
knots
gust
knots
rain 1hr
in
rain 24hr
in
rain mn
in
humidity
%
barometer
mb
20260510021540 59 186 0.0 0.9 0.00 0.00 0.00 67 1031.5
20260510020039 59 157 0.0 4.3 0.00 0.00 0.00 68 1031.7
20260510014536 59 207 0.0 0.9 0.00 0.00 0.00 68 1031.9
20260510013033 59 215 0.0 0.0 0.00 0.00 0.00 69 1032.0
20260510011531 58 250 0.0 4.3 0.00 0.00 0.00 70 1032.2
20260510010027 58 194 0.0 3.5 0.00 0.00 0.00 71 1032.2
20260510004524 58 144 0.0 3.5 0.00 0.00 0.00 73 1032.1
20260510003034 57 132 0.0 0.0 0.00 0.00 0.00 75 1032.1
20260510001524 57 147 0.0 0.0 0.00 0.00 0.00 78 1032.2
20260510000020 56 155 0.0 1.7 0.00 0.00 0.00 83 1032.1
20260509234521 55 152 0.0 0.9 0.00 0.00 0.00 90 1032.0
20260509233010 54 190 0.0 0.0 0.00 0.00 0.00 93 1032.0
20260509231512 54 191 0.0 0.0 0.00 0.00 0.00 94 1032.1
20260509230006 54 193 0.0 0.0 0.00 0.00 0.00 94 1032.1
20260509224502 54 193 0.0 0.0 0.00 0.00 0.00 94 1031.9
20260509223059 54 193 0.0 0.0 0.00 0.00 0.00 94 1031.8
20260509221557 53 193 0.0 0.0 0.00 0.00 0.00 95 1031.6
20260509220055 53 193 0.0 0.0 0.00 0.00 0.00 94 1031.5
20260509214550 53 193 0.0 0.0 0.00 0.00 0.00 94 1031.3
20260509213100 53 193 0.0 0.0 0.00 0.00 0.00 94 1031.1
20260509211544 53 193 0.0 0.0 0.00 0.00 0.00 94 1030.8
20260509210058 53 193 0.0 0.0 0.00 0.00 0.00 94 1030.7
20260509204543 53 193 0.0 0.0 0.00 0.01 0.00 94 1030.5
20260509203042 53 193 0.0 0.0 0.00 0.01 0.00 94 1030.4
20260509201539 53 193 0.0 0.0 0.00 0.01 0.00 94 1030.3
20260509200036 53 193 0.0 0.0 0.00 0.01 0.00 94 1030.2
20260509194534 54 193 0.0 0.0 0.00 0.02 0.00 94 1030.1
20260509193039 54 194 0.0 0.0 0.00 0.02 0.00 94 1030.0
20260509191538 54 194 0.0 0.0 0.00 0.02 0.00 94 1029.9
20260509190029 54 194 0.0 0.0 0.00 0.02 0.00 94 1029.8
20260509184528 54 194 0.0 0.0 0.00 0.02 0.00 94 1029.6
20260509183030 54 194 0.0 0.0 0.00 0.02 0.00 94 1029.4
20260509181526 54 194 0.0 0.0 0.00 0.02 0.00 94 1029.4
20260509180025 54 194 0.0 0.0 0.00 0.02 0.00 94 1029.2
20260509174524 54 194 0.0 0.0 0.00 0.02 0.00 93 1029.2
20260509173022 54 194 0.0 0.0 0.00 0.02 0.00 93 1029.2
20260509171522 54 194 0.0 0.0 0.00 0.02 0.00 93 1029.2
20260509170020 54 194 0.0 0.0 0.00 0.02 0.00 93 1029.2
20260509164531 54 194 0.0 0.0 0.00 0.08 0.00 93 1029.4
20260509163018 54 194 0.0 0.0 0.00 0.08 0.00 93 1029.3
20260509161516 54 194 0.0 0.0 0.00 0.08 0.00 93 1029.4
20260509160014 54 194 0.0 0.0 0.00 0.08 0.00 92 1029.4
20260509154512 54 194 0.0 0.0 0.00 0.08 0.00 92 1029.5
20260509153010 54 194 0.0 0.0 0.00 0.08 0.00 92 1029.5
20260509151509 55 194 0.0 0.0 0.00 0.08 0.00 92 1029.5
20260509150007 55 194 0.0 0.0 0.00 0.08 0.00 92 1029.5
20260509144505 55 194 0.0 0.0 0.00 0.08 0.00 91 1029.5
20260509143004 55 194 0.0 0.0 0.00 0.08 0.00 91 1029.6
20260509141503 55 194 0.0 0.0 0.00 0.08 0.00 91 1029.6
20260509140106 55 194 0.0 0.0 0.00 0.08 0.00 90 1029.6
20260509140002 55 194 0.0 0.0 0.00 0.08 0.08 90 1029.6
20260509134610 55 194 0.0 0.0 0.00 0.08 0.08 90 1029.6
20260509133059 55 194 0.0 0.0 0.00 0.08 0.08 89 1029.5
20260509131558 55 194 0.0 0.0 0.00 0.08 0.08 89 1029.6
20260509130100 55 194 0.0 0.0 0.00 0.08 0.08 90 1029.6
20260509124604 55 194 0.0 0.0 0.00 0.08 0.08 90 1029.6
20260509123056 55 194 0.0 0.0 0.00 0.08 0.08 91 1029.6
20260509121606 54 195 0.0 0.0 0.00 0.08 0.08 91 1029.6
20260509120112 54 192 0.0 0.0 0.00 0.08 0.08 91 1029.7
20260509114552 54 192 0.0 0.0 0.00 0.08 0.08 91 1029.5
20260509113055 54 192 0.0 0.0 0.00 0.08 0.08 91 1029.4
20260509111551 54 192 0.0 0.0 0.00 0.08 0.08 90 1029.3
20260509110050 54 192 0.0 0.0 0.00 0.08 0.08 90 1029.2
20260509104545 54 193 0.0 0.0 0.00 0.08 0.08 89 1029.2
20260509103042 54 193 0.0 0.0 0.00 0.08 0.08 89 1029.2
20260509101551 55 193 0.0 0.0 0.00 0.08 0.08 88 1029.2
20260509100045 55 193 0.0 0.0 0.00 0.08 0.08 88 1029.2
20260509094539 56 192 0.0 0.0 0.00 0.09 0.08 88 1029.2
20260509093039 56 214 0.0 0.0 0.00 0.09 0.08 88 1029.1
20260509091537 56 213 0.0 0.9 0.00 0.09 0.08 88 1029.0
20260509090042 56 213 0.0 0.0 0.00 0.09 0.08 88 1028.9
20260509084543 56 213 0.0 0.0 0.00 0.09 0.08 88 1028.7
20260509083033 57 210 0.0 1.7 0.00 0.09 0.08 88 1028.6
20260509081534 57 224 0.0 3.5 0.00 0.09 0.08 88 1028.5
20260509080037 57 229 0.0 2.6 0.00 0.09 0.08 87 1028.3
20260509074532 57 213 0.0 0.0 0.00 0.09 0.08 86 1028.1
20260509073059 57 201 0.0 7.0 0.00 0.09 0.08 85 1028.0
20260509071536 58 283 0.0 5.2 0.00 0.09 0.08 84 1027.9
20260509070032 58 240 0.9 6.1 0.00 0.09 0.08 82 1027.8
20260509064530 58 217 0.9 6.1 0.00 0.09 0.08 82 1027.8
20260509063032 58 247 1.7 6.1 0.00 0.09 0.08 83 1027.7
20260509061529 58 196 0.0 7.0 0.00 0.09 0.08 82 1027.6
20260509060037 59 221 0.9 7.0 0.00 0.09 0.08 81 1027.6
20260509054527 59 275 0.0 5.2 0.00 0.09 0.08 81 1027.5
20260509053031 59 253 0.0 6.1 0.00 0.09 0.08 82 1027.5
20260509051526 60 207 0.0 5.2 0.00 0.09 0.08 81 1027.4
20260509050027 60 265 0.9 7.0 0.00 0.09 0.08 81 1027.4
20260509044533 60 250 0.9 9.6 0.00 0.10 0.08 81 1027.4
20260509043033 60 242 1.7 7.0 0.00 0.10 0.08 79 1027.5
20260509041523 60 264 1.7 7.0 0.00 0.10 0.08 81 1027.5
20260509040024 60 246 1.7 6.1 0.00 0.10 0.08 81 1027.5
20260509034534 60 259 1.7 6.1 0.00 0.13 0.08 80 1027.5
20260509033020 60 239 2.6 7.0 0.00 0.13 0.08 80 1027.6
20260509031519 59 215 0.9 7.8 0.00 0.13 0.08 82 1027.7
20260509030018 59 228 1.7 5.2 0.00 0.13 0.08 83 1027.8
20260509024516 59 264 0.0 6.1 0.00 0.13 0.08 83 1027.9
20260509023015 59 272 0.0 6.1 0.00 0.13 0.08 82 1028.2